Weather History for Wolf Point, MT

Change the Weather History Date:

Sunday, June 30, 2013

  Actual Average Record
Temperature  
Mean Temperature 68 °F -  
Max Temperature 82 °F 82 °F 96 °F (2008)
Min Temperature 54 °F 52 °F 43 °F (1999)
Degree Days  
Heating Degree Days 0    
Cooling Degree Days 3    
Growing Degree Days 18 (Base 50)    
Moisture  
Dew Point 56 °F    
Average Humidity 66    
Maximum Humidity 93    
Minimum Humidity 39    
Precipitation  
Precipitation 0.00 in 0.05 in 0.24 in (2014)
Month to date precipitation 3.16 2.71  
Year to date precipitation 8.72 6.41  
Sea Level Pressure  
Sea Level Pressure 30.15 in    
Wind  
Wind Speed 6 mph (East)    
Max Wind Speed 12 mph    
Max Gust Speed -    
Visibility 10 miles    
Events      
T = Trace of Precipitation, MM = Missing Value Source: NWS Daily Summary

Daily Weather History Graph

Daily Weather History Graph

Search for Another Location

Airport:

Trip Planner

Search our weather history database for the weather conditions in past years. The results will help you decide how hot, cold, wet, or windy it might be!

Date:

Astronomy

Jun. 30, 2013 Rise Set
Actual Time 5:06 AM MDT 9:05 PM MDT
Civil Twilight 4:24 AM MDT 9:46 PM MDT
Nautical Twilight 3:27 AM MDT 10:43 PM MDT
Astronomical Twilight 1:52 AM MDT 12:17 AM MDT
Moon 12:29 AM MDT 2:03 PM MDT
Length of Visible Light 17h 22m
Length of Day
15h 59m
Last Quarter, 45% of the Moon is Illuminated
Jun 30
Last Quarter
Jul 8
New
Jul 15
First Quarter
Jul 22
Full
Jul 29
Last Quarter

Hourly Weather History & Observations

Time (MDT) Temp. Heat Index Dew Point Humidity Pressure Visibility Wind Dir Wind Speed Gust Speed Precip Events Conditions
12:53 AM 59.0 °F - 55.0 °F 87% 30.13 in 10.0 mi ENE 5.8 mph - N/A   Clear
1:53 AM 57.0 °F - 54.0 °F 89% 30.14 in 10.0 mi NE 4.6 mph - N/A   Clear
2:53 AM 55.0 °F - 52.0 °F 89% 30.15 in 10.0 mi ENE 4.6 mph - N/A   Clear
3:53 AM 55.0 °F - 53.1 °F 93% 30.15 in 10.0 mi Calm Calm - N/A   Clear
4:53 AM 54.0 °F - 52.0 °F 93% 30.16 in 10.0 mi ENE 5.8 mph - N/A   Clear
5:53 AM 55.9 °F - 53.1 °F 90% 30.16 in 10.0 mi ENE 3.5 mph - N/A   Clear
6:53 AM 60.1 °F - 55.9 °F 86% 30.17 in 10.0 mi ENE 8.1 mph - N/A   Clear
7:53 AM 64.0 °F - 57.9 °F 80% 30.16 in 10.0 mi East 5.8 mph - N/A   Clear
8:53 AM 68.0 °F - 59.0 °F 73% 30.17 in 10.0 mi ENE 6.9 mph - N/A   Clear
9:53 AM 73.0 °F - 60.1 °F 64% 30.16 in 10.0 mi East 4.6 mph - N/A   Clear
10:53 AM 75.0 °F - 57.0 °F 53% 30.16 in 10.0 mi SE 5.8 mph - N/A   Clear
11:53 AM 78.1 °F - 57.0 °F 48% 30.16 in 10.0 mi SE 8.1 mph - N/A   Partly Cloudy
12:53 PM 80.1 °F 80.2 °F 55.9 °F 43% 30.15 in 10.0 mi East 11.5 mph - N/A   Clear
1:53 PM 80.1 °F 79.9 °F 53.1 °F 39% 30.15 in 10.0 mi ESE 8.1 mph - N/A   Clear
2:53 PM 80.1 °F 80.1 °F 55.0 °F 42% 30.14 in 10.0 mi SE 6.9 mph - N/A   Clear
3:53 PM 78.1 °F - 55.0 °F 45% 30.14 in 10.0 mi SE 5.8 mph - N/A   Clear
4:53 PM 79.0 °F - 53.1 °F 40% 30.14 in 10.0 mi SE 6.9 mph - N/A   Clear
5:53 PM 81.0 °F 80.8 °F 55.9 °F 42% 30.13 in 10.0 mi ESE 8.1 mph - N/A   Clear
6:53 PM 80.1 °F 80.2 °F 55.9 °F 43% 30.13 in 10.0 mi ESE 8.1 mph - N/A   Clear
7:53 PM 78.1 °F - 59.0 °F 52% 30.13 in 10.0 mi East 5.8 mph - N/A   Clear
8:53 PM 73.9 °F - 60.1 °F 62% 30.13 in 10.0 mi East 6.9 mph - N/A   Clear
9:53 PM 66.9 °F - 60.1 °F 79% 30.15 in 10.0 mi ENE 5.8 mph - N/A   Clear
10:53 PM 64.9 °F - 59.0 °F 81% 30.15 in 10.0 mi ENE 6.9 mph - N/A   Clear
11:53 PM 64.0 °F - 57.9 °F 80% 30.16 in 10.0 mi ENE 8.1 mph - N/A   Clear